Location: Carlingford
(46.7848°N, 67.7474°W)
Time: 11:45:25
(UTC+00:00)

N. Korean satellite - Pass Details

Date: 02 December 2022
Orbit: 407 x 441 km, 97.3° (Epoch: 05 February)

Event Time Altitude Azimuth Distance (km) Brightness Sun altitude
Rises 09:20:57 0° 21° (NNE) 2,529 10.4 -25.8°
Reaches altitude 10° 09:23:11 10° 31° (NNE) 1,642 9.5 -25.4°
Maximum altitude 09:26:23 32° 96° (E) 828 8.3 -24.9°
Drops below altitude 10° 09:29:31 10° 162° (SSE) 1,610 9.5 -24.4°
Sets 09:31:41 0° 172° (S) 2,469 10.3 -24.0°
